• In Sweden
  • List of Countries
  • For 7 days
  • Water Temperature
  • Satellite Maps
  • Weather Map
  • Weather Widgets
  • user-avatar
    Login

    Hourly Weather Silinki

    Today, 21 October, Sunday

    Time Temperature Precipitation Wind Pressure Humidity
    00:00 +4°C° 0 mm 1 mps 748 mmHg 92%
    01:00 +4°C° 0 mm 1 mps 749 mmHg 93%
    02:00 +4°C° 0 mm 1 mps 749 mmHg 93%
    03:00 +3°C° 0 mm 1 mps 749 mmHg 94%
    04:00 +3°C° 0 mm 1 mps 749 mmHg 94%
    05:00 +3°C° 0 mm 1 mps 749 mmHg 95%
    06:00 +3°C° 0 mm 1 mps 749 mmHg 93%
    07:00 +4°C° 0 mm 1 mps 750 mmHg 91%
    08:00 +5°C° 0 mm 1 mps 750 mmHg 87%
    09:00 +6°C° 0 mm 1 mps 750 mmHg 81%
    10:00 +7°C° 0 mm 1 mps 750 mmHg 76%
    11:00 +8°C° 0 mm 1 mps 750 mmHg 70%
    12:00 +8°C° 0 mm 1 mps 750 mmHg 69%
    13:00 +9°C° 0 mm 1 mps 750 mmHg 67%
    14:00 +7°C° 0 mm 0 mps 751 mmHg 64%
    15:00 +7°C° 0 mm 0 mps 751 mmHg 66%
    16:00 +7°C° 0 mm 1 mps 751 mmHg 68%
    17:00 +7°C° 0 mm 1 mps 751 mmHg 70%
    18:00 +5°C° 0 mm 0 mps 751 mmHg 71%
    19:00 +5°C° 0 mm 0 mps 751 mmHg 72%
    20:00 +5°C° 0 mm 0 mps 751 mmHg 73%
    21:00 +5°C° 0 mm 1 mps 751 mmHg 74%
    22:00 +5°C° 0 mm 1 mps 751 mmHg 76%
    23:00 +4°C° 0 mm 1 mps 751 mmHg 78%

    Tomorrow, 22 October, Monday

    Time Temperature Precipitation Wind Pressure Humidity
    00:00 +4°C° 0 mm 1 mps 751 mmHg 80%
    01:00 +3°C° 0 mm 1 mps 751 mmHg 83%
    02:00 +3°C° 0 mm 1 mps 751 mmHg 86%
    03:00 +3°C° 0 mm 1 mps 751 mmHg 87%
    04:00 +2°C° 0 mm 1 mps 750 mmHg 89%
    05:00 +2°C° 0 mm 1 mps 750 mmHg 91%
    06:00 +1°C° 0 mm 2 mps 750 mmHg 89%
    07:00 +2°C° 0 mm 2 mps 750 mmHg 86%
    08:00 +2°C° 0 mm 2 mps 750 mmHg 84%
    09:00 +3°C° 0 mm 3 mps 749 mmHg 79%
    10:00 +4°C° 0 mm 3 mps 749 mmHg 73%
    11:00 +7°C° 0 mm 3 mps 748 mmHg 67%
    12:00 +7°C° 0 mm 3 mps 748 mmHg 66%
    13:00 +7°C° 0 mm 4 mps 747 mmHg 64%
    14:00 +7°C° 0 mm 4 mps 746 mmHg 62%
    15:00 +7°C° 0 mm 3 mps 746 mmHg 67%
    16:00 +5°C° 0 mm 3 mps 745 mmHg 73%
    17:00 +4°C° 0 mm 3 mps 745 mmHg 78%
    18:00 +4°C° 0 mm 3 mps 744 mmHg 79%
    19:00 +3°C° 0 mm 3 mps 744 mmHg 80%
    20:00 +3°C° 0 mm 4 mps 743 mmHg 81%
    21:00 +3°C° 0 mm 4 mps 743 mmHg 83%
    22:00 +3°C° 0 mm 4 mps 742 mmHg 84%
    23:00 +1°C° 0 mm 4 mps 741 mmHg 85%

    Day after tomorrow, 23 October, Tuesday

    Time Temperature Precipitation Wind Pressure Humidity
    00:00 +2°C° 0 mm 3 mps 741 mmHg 86%
    01:00 +2°C° 0 mm 3 mps 740 mmHg 88%
    02:00 +2°C° 0 mm 3 mps 740 mmHg 90%
    03:00 +2°C° 0.1 mm 3 mps 739 mmHg 91%
    04:00 +2°C° 0.1 mm 3 mps 738 mmHg 92%
    05:00 +2°C° 0.1 mm 3 mps 738 mmHg 93%
    06:00 +2°C° 0.3 mm 3 mps 738 mmHg 93%
    07:00 +3°C° 0.3 mm 3 mps 737 mmHg 92%
    08:00 +4°C° 0.3 mm 2 mps 737 mmHg 92%
    09:00 +5°C° 0 mm 2 mps 737 mmHg 88%
    10:00 +6°C° 0 mm 2 mps 737 mmHg 83%
    11:00 +5°C° 0 mm 3 mps 737 mmHg 79%
    12:00 +7°C° 0 mm 2 mps 736 mmHg 75%
    13:00 +7°C° 0 mm 2 mps 736 mmHg 70%
    14:00 +7°C° 0 mm 2 mps 735 mmHg 66%
    15:00 +7°C° 0 mm 1 mps 735 mmHg 70%
    16:00 +6°C° 0 mm 1 mps 734 mmHg 75%
    17:00 +5°C° 0 mm 1 mps 734 mmHg 79%
    18:00 +4°C° 0 mm 1 mps 733 mmHg 80%
    19:00 +4°C° 0 mm 1 mps 733 mmHg 81%
    20:00 +4°C° 0 mm 1 mps 732 mmHg 82%
    21:00 +3°C° 0 mm 2 mps 732 mmHg 84%
    22:00 +3°C° 0 mm 2 mps 731 mmHg 85%
    23:00 +3°C° 0 mm 2 mps 730 mmHg 86%

    24 October, Wednesday

    Time Temperature Precipitation Wind Pressure Humidity
    00:00 +2°C° 0 mm 2 mps 729 mmHg 88%
    01:00 +2°C° 0 mm 2 mps 729 mmHg 90%
    02:00 +1°C° 0 mm 2 mps 728 mmHg 92%
    03:00 0°C° 0 mm 3 mps 727 mmHg 92%
    04:00 0°C° 0 mm 3 mps 726 mmHg 92%
    05:00 0°C° 0 mm 3 mps 725 mmHg 91%
    06:00 0°C° 0 mm 4 mps 724 mmHg 90%
    07:00 0°C° 0 mm 4 mps 724 mmHg 88%
    08:00 +1°C° 0 mm 4 mps 723 mmHg 87%
    09:00 +1°C° 0.3 mm 5 mps 722 mmHg 84%
    10:00 +2°C° 0.3 mm 5 mps 722 mmHg 81%
    11:00 +3°C° 0.3 mm 5 mps 721 mmHg 78%
    12:00 +3°C° 0.4 mm 5 mps 721 mmHg 79%
    13:00 +3°C° 0.4 mm 5 mps 721 mmHg 81%
    14:00 +3°C° 0.4 mm 5 mps 720 mmHg 82%
    15:00 +4°C° 0.4 mm 4 mps 720 mmHg 84%
    16:00 +4°C° 0.4 mm 4 mps 720 mmHg 87%
    17:00 +4°C° 0.4 mm 4 mps 720 mmHg 89%
    18:00 +4°C° 0.2 mm 3 mps 720 mmHg 91%
    19:00 +4°C° 0.2 mm 3 mps 720 mmHg 93%
    20:00 +3°C° 0.2 mm 3 mps 721 mmHg 94%
    21:00 +4°C° 0 mm 2 mps 721 mmHg 95%
    22:00 +4°C° 0 mm 2 mps 721 mmHg 96%
    23:00 +3°C° 0 mm 2 mps 721 mmHg 97%

    25 October, Thursday

    Time Temperature Precipitation Wind Pressure Humidity
    00:00 +4°C° 0.4 mm 2 mps 721 mmHg 97%
    01:00 +3°C° 0.4 mm 3 mps 721 mmHg 97%
    02:00 +3°C° 0.4 mm 3 mps 721 mmHg 97%
    03:00 +3°C° 1.6 mm 4 mps 721 mmHg 96%
    04:00 +4°C° 1.6 mm 4 mps 721 mmHg 95%
    05:00 +3°C° 1.6 mm 5 mps 721 mmHg 93%
    06:00 +3°C° 2 mm 5 mps 721 mmHg 93%
    07:00 +3°C° 2 mm 5 mps 720 mmHg 92%
    08:00 +3°C° 2 mm 6 mps 720 mmHg 91%
    09:00 +3°C° 1.5 mm 6 mps 720 mmHg 91%
    10:00 +3°C° 1.5 mm 6 mps 720 mmHg 90%
    11:00 +3°C° 1.5 mm 6 mps 720 mmHg 90%
    12:00 +3°C° 2.1 mm 6 mps 720 mmHg 89%
    13:00 +3°C° 2.1 mm 7 mps 720 mmHg 88%
    14:00 +3°C° 2.1 mm 7 mps 720 mmHg 88%
    15:00 +3°C° 1.9 mm 7 mps 720 mmHg 86%
    16:00 +1°C° 1.9 mm 8 mps 721 mmHg 85%
    17:00 +1°C° 1.9 mm 8 mps 721 mmHg 84%
    18:00 +1°C° 1 mm 8 mps 721 mmHg 83%
    19:00 0°C° 1 mm 8 mps 722 mmHg 83%
    20:00 0°C° 1 mm 8 mps 722 mmHg 82%
    21:00 -1°C° 0.2 mm 7 mps 723 mmHg 82%
    22:00 -1°C° 0.2 mm 7 mps 723 mmHg 82%
    23:00 -1°C° 0.2 mm 7 mps 724 mmHg 81%

    26 October, Friday

    Time Temperature Precipitation Wind Pressure Humidity
    00:00 -2°C° 0 mm 6 mps 724 mmHg 81%
    01:00 -2°C° 0 mm 6 mps 725 mmHg 81%
    02:00 -2°C° 0 mm 5 mps 726 mmHg 81%
    03:00 -2°C° 0 mm 5 mps 726 mmHg 84%
    04:00 -2°C° 0 mm 5 mps 727 mmHg 86%
    05:00 -2°C° 0 mm 4 mps 728 mmHg 88%
    06:00 -1°C° 0 mm 4 mps 728 mmHg 87%
    07:00 -1°C° 0 mm 5 mps 729 mmHg 86%
    08:00 0°C° 0 mm 5 mps 729 mmHg 85%
    09:00 0°C° 0.1 mm 5 mps 730 mmHg 83%
    10:00 +1°C° 0.1 mm 5 mps 730 mmHg 81%
    11:00 +1°C° 0.1 mm 4 mps 731 mmHg 79%
    12:00 +1°C° 0 mm 4 mps 731 mmHg 78%
    13:00 +3°C° 0 mm 4 mps 732 mmHg 77%
    14:00 +3°C° 0 mm 4 mps 732 mmHg 76%
    15:00 +3°C° 0 mm 3 mps 733 mmHg 79%
    16:00 +2°C° 0 mm 3 mps 733 mmHg 81%
    17:00 +2°C° 0 mm 3 mps 734 mmHg 84%
    18:00 +2°C° 0 mm 3 mps 734 mmHg 87%
    19:00 +1°C° 0 mm 3 mps 735 mmHg 89%
    20:00 +1°C° 0 mm 3 mps 735 mmHg 92%
    21:00 +1°C° 0 mm 3 mps 735 mmHg 93%
    22:00 0°C° 0 mm 3 mps 736 mmHg 94%
    23:00 0°C° 0 mm 3 mps 736 mmHg 95%
    Show more